owner,sensor,date,latitude,longitude,vertical_datum,wind_speed,wind_to_direction,wind_speed_of_gust,qcFlag 
DISL,ioos:station:DISL:CATA:1,2013-08-01T00:00:00Z,30.3085,-88.1395,0.0,4.0,206.0,99.0,'11111222,11111222,11144222' 
DISL,ioos:station:DISL:CATA:1,2013-08-01T00:30:00Z,30.3085,-88.1395,0.0,5.1,224.0,99.0,'11111222,11111222,11144222' 
DISL,ioos:station:DISL:CATA:1,2013-08-01T01:00:00Z,30.3085,-88.1395,0.0,4.7,225.0,99.0,'11111222,11111222,11144222' 
DISL,ioos:station:DISL:CATA:1,2013-08-01T01:30:00Z,30.3085,-88.1395,0.0,3.9,218.0,99.0,'11111222,11111222,11144222' 
DISL,ioos:station:DISL:CATA:1,2013-08-01T02:00:00Z,30.3085,-88.1395,0.0,4.7,212.0,99.0,'11111222,11111222,11144222' 
DISL,ioos:station:DISL:CATA:1,2013-08-01T02:30:00Z,30.3085,-88.1395,0.0,5.4,216.0,99.0,'11111222,11111222,11144222' 
DISL,ioos:station:DISL:CATA:1,2013-08-01T03:00:00Z,30.3085,-88.1395,0.0,5.4,214.0,99.0,'11111222,11111222,11144222' 
DISL,ioos:station:DISL:CATA:1,2013-08-01T03:30:00Z,30.3085,-88.1395,0.0,5.6,213.0,99.0,'11111222,11111222,11144222' 
DISL,ioos:station:DISL:CATA:1,2013-08-01T04:00:00Z,30.3085,-88.1395,0.0,6.2,222.0,99.0,'11111222,11111222,11144222' 
DISL,ioos:station:DISL:CATA:1,2013-08-01T04:30:00Z,30.3085,-88.1395,0.0,5.9,217.0,99.0,'11111222,11111222,11144222' 
DISL,ioos:station:DISL:CATA:1,2013-08-01T05:00:00Z,30.3085,-88.1395,0.0,6.1,224.0,99.0,'11111222,11111222,11144222' 
DISL,ioos:station:DISL:CATA:1,2013-08-01T05:30:00Z,30.3085,-88.1395,0.0,6.8,214.0,99.0,'11111222,11111222,11144222' 
DISL,ioos:station:DISL:CATA:1,2013-08-01T06:30:00Z,30.3085,-88.1395,0.0,7.1,222.0,99.0,'11111222,11111222,11144222' 
DISL,ioos:station:DISL:CATA:1,2013-08-01T07:00:00Z,30.3085,-88.1395,0.0,6.5,235.0,99.0,'11111222,11111222,11144222' 
DISL,ioos:station:DISL:CATA:1,2013-08-01T07:30:00Z,30.3085,-88.1395,0.0,6.3,238.0,99.0,'11111222,11111222,11144222' 
DISL,ioos:station:DISL:CATA:1,2013-08-01T08:00:00Z,30.3085,-88.1395,0.0,6.5,236.0,99.0,'11111222,11111222,11144222' 
DISL,ioos:station:DISL:CATA:1,2013-08-01T08:30:00Z,30.3085,-88.1395,0.0,6.8,250.0,99.0,'11111222,11111222,11144222' 
DISL,ioos:station:DISL:CATA:1,2013-08-01T09:00:00Z,30.3085,-88.1395,0.0,6.8,251.0,99.0,'11111222,11111222,11144222' 
DISL,ioos:station:DISL:CATA:1,2013-08-01T09:30:00Z,30.3085,-88.1395,0.0,7.3,260.0,99.0,'11111222,11111222,11144222' 
DISL,ioos:station:DISL:CATA:1,2013-08-01T10:00:00Z,30.3085,-88.1395,0.0,7.6,268.0,99.0,'11111222,11111222,11144222' 
DISL,ioos:station:DISL:CATA:1,2013-08-01T10:30:00Z,30.3085,-88.1395,0.0,7.4,278.0,99.0,'11111222,11111222,11144222' 
DISL,ioos:station:DISL:CATA:1,2013-08-01T11:00:00Z,30.3085,-88.1395,0.0,7.1,265.0,99.0,'11111222,11111222,11144222' 
DISL,ioos:station:DISL:CATA:1,2013-08-01T11:30:00Z,30.3085,-88.1395,0.0,5.4,305.0,99.0,'11111222,11111222,11144222' 
DISL,ioos:station:DISL:CATA:1,2013-08-01T12:00:00Z,30.3085,-88.1395,0.0,4.2,321.0,99.0,'11111222,11111222,11144222' 
DISL,ioos:station:DISL:CATA:1,2013-08-01T12:30:00Z,30.3085,-88.1395,0.0,7.2,287.0,99.0,'11111222,11111222,11144222' 
DISL,ioos:station:DISL:CATA:1,2013-08-01T13:00:00Z,30.3085,-88.1395,0.0,6.5,237.0,99.0,'11111222,11111222,11144222' 
DISL,ioos:station:DISL:CATA:1,2013-08-01T13:30:00Z,30.3085,-88.1395,0.0,5.7,256.0,99.0,'11111222,11111222,11144222' 
DISL,ioos:station:DISL:CATA:1,2013-08-01T14:00:00Z,30.3085,-88.1395,0.0,6.5,260.0,99.0,'11111222,11111222,11144222' 
DISL,ioos:station:DISL:CATA:1,2013-08-01T14:30:00Z,30.3085,-88.1395,0.0,7.8,285.0,99.0,'11111222,11111222,11144222' 
DISL,ioos:station:DISL:CATA:1,2013-08-01T15:00:00Z,30.3085,-88.1395,0.0,5.6,257.0,99.0,'11111222,11111222,11144222' 
DISL,ioos:station:DISL:CATA:1,2013-08-01T15:30:00Z,30.3085,-88.1395,0.0,5.4,264.0,99.0,'11111222,11111222,11144222' 
DISL,ioos:station:DISL:CATA:1,2013-08-01T16:00:00Z,30.3085,-88.1395,0.0,6.0,258.0,99.0,'11111222,11111222,11144222' 
DISL,ioos:station:DISL:CATA:1,2013-08-01T16:30:00Z,30.3085,-88.1395,0.0,5.7,257.0,99.0,'11111222,11111222,11144222' 
DISL,ioos:station:DISL:CATA:1,2013-08-01T17:00:00Z,30.3085,-88.1395,0.0,5.3,252.0,99.0,'11111222,11111222,11144222' 
DISL,ioos:station:DISL:CATA:1,2013-08-01T17:30:00Z,30.3085,-88.1395,0.0,6.0,252.0,99.0,'11111222,11111222,11144222' 
DISL,ioos:station:DISL:CATA:1,2013-08-01T18:00:00Z,30.3085,-88.1395,0.0,6.0,216.0,99.0,'11111222,11111222,11144222' 
DISL,ioos:station:DISL:CATA:1,2013-08-01T18:30:00Z,30.3085,-88.1395,0.0,6.7,248.0,99.0,'11111222,11111222,11144222' 
DISL,ioos:station:DISL:CATA:1,2013-08-01T19:00:00Z,30.3085,-88.1395,0.0,6.9,237.0,99.0,'11111222,11111222,11144222' 
DISL,ioos:station:DISL:CATA:1,2013-08-01T19:30:00Z,30.3085,-88.1395,0.0,7.1,243.0,99.0,'11111222,11111222,11144222' 
DISL,ioos:station:DISL:CATA:1,2013-08-01T20:00:00Z,30.3085,-88.1395,0.0,7.0,261.0,99.0,'11111222,11111222,11144222' 
DISL,ioos:station:DISL:CATA:1,2013-08-01T20:30:00Z,30.3085,-88.1395,0.0,7.2,332.0,99.0,'11111222,11111222,11144222' 
DISL,ioos:station:DISL:CATA:1,2013-08-01T21:00:00Z,30.3085,-88.1395,0.0,6.5,77.0,99.0,'11111222,11111222,11144222' 
DISL,ioos:station:DISL:CATA:1,2013-08-01T21:30:00Z,30.3085,-88.1395,0.0,4.4,95.0,99.0,'11111222,11111222,11144222' 
DISL,ioos:station:DISL:CATA:1,2013-08-01T22:00:00Z,30.3085,-88.1395,0.0,0.4,284.0,99.0,'11111222,11111222,11144222' 
DISL,ioos:station:DISL:CATA:1,2013-08-01T22:30:00Z,30.3085,-88.1395,0.0,4.0,255.0,99.0,'11111222,11111222,11144222' 
DISL,ioos:station:DISL:CATA:1,2013-08-01T23:00:00Z,30.3085,-88.1395,0.0,2.6,7.0,99.0,'11111222,11111222,11144222' 
DISL,ioos:station:DISL:CATA:1,2013-08-01T23:30:00Z,30.3085,-88.1395,0.0,1.6,245.0,99.0,'11111222,11111222,11144222' 
DISL,ioos:station:DISL:CATA:1,2013-08-02T00:00:00Z,30.3085,-88.1395,0.0,1.6,347.0,99.0,'11111222,11111222,11144222' 
DISL,ioos:station:DISL:CATA:1,2013-08-02T00:30:00Z,30.3085,-88.1395,0.0,1.4,5.0,99.0,'11111222,11111222,11144222' 
DISL,ioos:station:DISL:CATA:1,2013-08-02T01:00:00Z,30.3085,-88.1395,0.0,2.7,331.0,99.0,'11111222,11111222,11144222' 
DISL,ioos:station:DISL:CATA:1,2013-08-02T01:30:00Z,30.3085,-88.1395,0.0,2.4,355.0,99.0,'11111222,11111222,11144222' 
DISL,ioos:station:DISL:CATA:1,2013-08-02T02:00:00Z,30.3085,-88.1395,0.0,0.5,2.0,99.0,'11111222,11111222,11144222' 
DISL,ioos:station:DISL:CATA:1,2013-08-02T02:30:00Z,30.3085,-88.1395,0.0,2.5,327.0,99.0,'11111222,11111222,11144222' 
DISL,ioos:station:DISL:CATA:1,2013-08-02T03:00:00Z,30.3085,-88.1395,0.0,1.6,339.0,99.0,'11111222,11111222,11144222' 
DISL,ioos:station:DISL:CATA:1,2013-08-02T03:30:00Z,30.3085,-88.1395,0.0,1.1,310.0,99.0,'11111222,11111222,11144222' 
DISL,ioos:station:DISL:CATA:1,2013-08-02T04:00:00Z,30.3085,-88.1395,0.0,2.3,12.0,99.0,'11111222,11111222,11144222' 
DISL,ioos:station:DISL:CATA:1,2013-08-02T04:30:00Z,30.3085,-88.1395,0.0,1.9,2.0,99.0,'11111222,11111222,11144222' 
DISL,ioos:station:DISL:CATA:1,2013-08-02T05:00:00Z,30.3085,-88.1395,0.0,2.7,11.0,99.0,'11111222,11111222,11144222' 
DISL,ioos:station:DISL:CATA:1,2013-08-02T05:30:00Z,30.3085,-88.1395,0.0,2.0,10.0,99.0,'11111222,11111222,11144222' 
DISL,ioos:station:DISL:CATA:1,2013-08-02T06:30:00Z,30.3085,-88.1395,0.0,1.9,352.0,99.0,'11111222,11111222,11144222' 
DISL,ioos:station:DISL:CATA:1,2013-08-02T07:00:00Z,30.3085,-88.1395,0.0,1.8,1.0,99.0,'11111222,11111222,11144222' 
DISL,ioos:station:DISL:CATA:1,2013-08-02T07:30:00Z,30.3085,-88.1395,0.0,2.4,339.0,99.0,'11111222,11111222,11144222' 
DISL,ioos:station:DISL:CATA:1,2013-08-02T08:00:00Z,30.3085,-88.1395,0.0,1.1,348.0,99.0,'11111222,11111222,11144222' 
DISL,ioos:station:DISL:CATA:1,2013-08-02T08:30:00Z,30.3085,-88.1395,0.0,1.0,355.0,99.0,'11111222,11111222,11144222' 
DISL,ioos:station:DISL:CATA:1,2013-08-02T09:00:00Z,30.3085,-88.1395,0.0,2.8,6.0,99.0,'11111222,11111222,11144222' 
DISL,ioos:station:DISL:CATA:1,2013-08-02T09:30:00Z,30.3085,-88.1395,0.0,3.1,10.0,99.0,'11111222,11111222,11144222' 
DISL,ioos:station:DISL:CATA:1,2013-08-02T10:00:00Z,30.3085,-88.1395,0.0,2.6,16.0,99.0,'11111222,11111222,11144222' 
DISL,ioos:station:DISL:CATA:1,2013-08-02T10:30:00Z,30.3085,-88.1395,0.0,2.0,20.0,99.0,'11111222,11111222,11144222' 
DISL,ioos:station:DISL:CATA:1,2013-08-02T11:00:00Z,30.3085,-88.1395,0.0,2.6,15.0,99.0,'11111222,11111222,11144222' 
DISL,ioos:station:DISL:CATA:1,2013-08-02T11:30:00Z,30.3085,-88.1395,0.0,2.8,16.0,99.0,'11111222,11111222,11144222' 
DISL,ioos:station:DISL:CATA:1,2013-08-02T12:00:00Z,30.3085,-88.1395,0.0,2.7,11.0,99.0,'11111222,11111222,11144222' 
DISL,ioos:station:DISL:CATA:1,2013-08-02T12:30:00Z,30.3085,-88.1395,0.0,2.7,10.0,99.0,'11111222,11111222,11144222' 
DISL,ioos:station:DISL:CATA:1,2013-08-02T13:00:00Z,30.3085,-88.1395,0.0,3.1,25.0,99.0,'11111222,11111222,11144222' 
DISL,ioos:station:DISL:CATA:1,2013-08-02T13:30:00Z,30.3085,-88.1395,0.0,3.0,34.0,99.0,'11111222,11111222,11144222' 
DISL,ioos:station:DISL:CATA:1,2013-08-02T14:00:00Z,30.3085,-88.1395,0.0,4.1,38.0,99.0,'11111222,11111222,11144222' 
DISL,ioos:station:DISL:CATA:1,2013-08-02T14:30:00Z,30.3085,-88.1395,0.0,4.3,35.0,99.0,'11111222,11111222,11144222' 
DISL,ioos:station:DISL:CATA:1,2013-08-02T15:00:00Z,30.3085,-88.1395,0.0,3.3,48.0,99.0,'11111222,11111222,11144222' 
DISL,ioos:station:DISL:CATA:1,2013-08-02T15:30:00Z,30.3085,-88.1395,0.0,2.9,58.0,99.0,'11111222,11111222,11144222' 
DISL,ioos:station:DISL:CATA:1,2013-08-02T16:00:00Z,30.3085,-88.1395,0.0,2.2,57.0,99.0,'11111222,11111222,11144222' 
DISL,ioos:station:DISL:CATA:1,2013-08-02T16:30:00Z,30.3085,-88.1395,0.0,2.3,58.0,99.0,'11111222,11111222,11144222' 
DISL,ioos:station:DISL:CATA:1,2013-08-02T17:00:00Z,30.3085,-88.1395,0.0,2.5,73.0,99.0,'11111222,11111222,11144222' 
DISL,ioos:station:DISL:CATA:1,2013-08-02T17:30:00Z,30.3085,-88.1395,0.0,2.1,89.0,99.0,'11111222,11111222,11144222' 
DISL,ioos:station:DISL:CATA:1,2013-08-02T18:00:00Z,30.3085,-88.1395,0.0,1.9,95.0,99.0,'11111222,11111222,11144222' 
DISL,ioos:station:DISL:CATA:1,2013-08-02T18:30:00Z,30.3085,-88.1395,0.0,2.0,95.0,99.0,'11111222,11111222,11144222' 
DISL,ioos:station:DISL:CATA:1,2013-08-02T19:00:00Z,30.3085,-88.1395,0.0,2.3,134.0,99.0,'11111222,11111222,11144222' 
DISL,ioos:station:DISL:CATA:1,2013-08-02T19:30:00Z,30.3085,-88.1395,0.0,3.5,175.0,99.0,'11111222,11111222,11144222' 
DISL,ioos:station:DISL:CATA:1,2013-08-02T20:00:00Z,30.3085,-88.1395,0.0,4.7,181.0,99.0,'11111222,11111222,11144222' 
DISL,ioos:station:DISL:CATA:1,2013-08-02T20:30:00Z,30.3085,-88.1395,0.0,4.5,181.0,99.0,'11111222,11111222,11144222' 
DISL,ioos:station:DISL:CATA:1,2013-08-02T21:00:00Z,30.3085,-88.1395,0.0,4.3,179.0,99.0,'11111222,11111222,11144222' 
DISL,ioos:station:DISL:CATA:1,2013-08-02T21:30:00Z,30.3085,-88.1395,0.0,4.4,187.0,99.0,'11111222,11111222,11144222' 
DISL,ioos:station:DISL:CATA:1,2013-08-02T22:00:00Z,30.3085,-88.1395,0.0,4.9,189.0,99.0,'11111222,11111222,11144222' 
DISL,ioos:station:DISL:CATA:1,2013-08-02T22:30:00Z,30.3085,-88.1395,0.0,4.4,201.0,99.0,'11111222,11111222,11144222' 
DISL,ioos:station:DISL:CATA:1,2013-08-02T23:00:00Z,30.3085,-88.1395,0.0,4.4,208.0,99.0,'11111222,11111222,11144222' 
DISL,ioos:station:DISL:CATA:1,2013-08-02T23:30:00Z,30.3085,-88.1395,0.0,3.6,219.0,99.0,'11111222,11111222,11144222' 
DISL,ioos:station:DISL:CATA:1,2013-08-03T00:00:00Z,30.3085,-88.1395,0.0,3.9,208.0,99.0,'11111222,11111222,11144222' 
DISL,ioos:station:DISL:CATA:1,2013-08-03T00:30:00Z,30.3085,-88.1395,0.0,3.7,225.0,99.0,'11111222,11111222,11144222' 
DISL,ioos:station:DISL:CATA:1,2013-08-03T01:00:00Z,30.3085,-88.1395,0.0,3.9,226.0,99.0,'11111222,11111222,11144222' 
DISL,ioos:station:DISL:CATA:1,2013-08-03T01:30:00Z,30.3085,-88.1395,0.0,3.2,220.0,99.0,'11111222,11111222,11144222' 
DISL,ioos:station:DISL:CATA:1,2013-08-03T02:00:00Z,30.3085,-88.1395,0.0,2.9,216.0,99.0,'11111222,11111222,11144222' 
DISL,ioos:station:DISL:CATA:1,2013-08-03T02:30:00Z,30.3085,-88.1395,0.0,2.3,227.0,99.0,'11111222,11111222,11144222' 
DISL,ioos:station:DISL:CATA:1,2013-08-03T03:00:00Z,30.3085,-88.1395,0.0,2.9,215.0,99.0,'11111222,11111222,11144222' 
DISL,ioos:station:DISL:CATA:1,2013-08-03T03:30:00Z,30.3085,-88.1395,0.0,2.6,210.0,99.0,'11111222,11111222,11144222' 
DISL,ioos:station:DISL:CATA:1,2013-08-03T04:00:00Z,30.3085,-88.1395,0.0,3.1,203.0,99.0,'11111222,11111222,11144222' 
DISL,ioos:station:DISL:CATA:1,2013-08-03T04:30:00Z,30.3085,-88.1395,0.0,3.2,200.0,99.0,'11111222,11111222,11144222' 
DISL,ioos:station:DISL:CATA:1,2013-08-03T05:00:00Z,30.3085,-88.1395,0.0,4.4,194.0,99.0,'11111222,11111222,11144222' 
DISL,ioos:station:DISL:CATA:1,2013-08-03T05:30:00Z,30.3085,-88.1395,0.0,4.9,187.0,99.0,'11111222,11111222,11144222' 
DISL,ioos:station:DISL:CATA:1,2013-08-03T06:30:00Z,30.3085,-88.1395,0.0,5.2,205.0,99.0,'11111222,11111222,11144222' 
DISL,ioos:station:DISL:CATA:1,2013-08-03T07:00:00Z,30.3085,-88.1395,0.0,4.3,217.0,99.0,'11111222,11111222,11144222' 
DISL,ioos:station:DISL:CATA:1,2013-08-03T07:30:00Z,30.3085,-88.1395,0.0,4.0,226.0,99.0,'11111222,11111222,11144222' 
DISL,ioos:station:DISL:CATA:1,2013-08-03T08:00:00Z,30.3085,-88.1395,0.0,4.0,221.0,99.0,'11111222,11111222,11144222' 
DISL,ioos:station:DISL:CATA:1,2013-08-03T08:30:00Z,30.3085,-88.1395,0.0,4.9,227.0,99.0,'11111222,11111222,11144222' 
DISL,ioos:station:DISL:CATA:1,2013-08-03T09:00:00Z,30.3085,-88.1395,0.0,4.7,229.0,99.0,'11111222,11111222,11144222' 
DISL,ioos:station:DISL:CATA:1,2013-08-03T09:30:00Z,30.3085,-88.1395,0.0,4.0,228.0,99.0,'11111222,11111222,11144222' 
DISL,ioos:station:DISL:CATA:1,2013-08-03T10:00:00Z,30.3085,-88.1395,0.0,3.5,238.0,99.0,'11111222,11111222,11144222' 
DISL,ioos:station:DISL:CATA:1,2013-08-03T10:30:00Z,30.3085,-88.1395,0.0,3.5,251.0,99.0,'11111222,11111222,11144222' 
DISL,ioos:station:DISL:CATA:1,2013-08-03T11:00:00Z,30.3085,-88.1395,0.0,3.0,268.0,99.0,'11111222,11111222,11144222' 
DISL,ioos:station:DISL:CATA:1,2013-08-03T11:30:00Z,30.3085,-88.1395,0.0,2.6,355.0,99.0,'11111222,11111222,11144222' 
DISL,ioos:station:DISL:CATA:1,2013-08-03T12:00:00Z,30.3085,-88.1395,0.0,2.5,354.0,99.0,'11111222,11111222,11144222' 
DISL,ioos:station:DISL:CATA:1,2013-08-03T12:30:00Z,30.3085,-88.1395,0.0,2.4,345.0,99.0,'11111222,11111222,11144222' 
DISL,ioos:station:DISL:CATA:1,2013-08-03T13:00:00Z,30.3085,-88.1395,0.0,1.7,353.0,99.0,'11111222,11111222,11144222' 
DISL,ioos:station:DISL:CATA:1,2013-08-03T13:30:00Z,30.3085,-88.1395,0.0,1.3,340.0,99.0,'11111222,11111222,11144222' 
DISL,ioos:station:DISL:CATA:1,2013-08-03T14:00:00Z,30.3085,-88.1395,0.0,1.3,335.0,99.0,'11111222,11111222,11144222' 
DISL,ioos:station:DISL:CATA:1,2013-08-03T14:30:00Z,30.3085,-88.1395,0.0,2.2,295.0,99.0,'11111222,11111222,11144222' 
DISL,ioos:station:DISL:CATA:1,2013-08-03T15:00:00Z,30.3085,-88.1395,0.0,1.2,266.0,99.0,'11111222,11111222,11144222' 
DISL,ioos:station:DISL:CATA:1,2013-08-03T15:30:00Z,30.3085,-88.1395,0.0,2.5,261.0,99.0,'11111222,11111222,11144222' 
DISL,ioos:station:DISL:CATA:1,2013-08-03T16:00:00Z,30.3085,-88.1395,0.0,3.1,256.0,99.0,'11111222,11111222,11144222' 
DISL,ioos:station:DISL:CATA:1,2013-08-03T16:30:00Z,30.3085,-88.1395,0.0,3.7,247.0,99.0,'11111222,11111222,11144222' 
DISL,ioos:station:DISL:CATA:1,2013-08-03T17:00:00Z,30.3085,-88.1395,0.0,2.6,260.0,99.0,'11111222,11111222,11144222' 
DISL,ioos:station:DISL:CATA:1,2013-08-03T17:30:00Z,30.3085,-88.1395,0.0,2.9,222.0,99.0,'11111222,11111222,11144222' 
DISL,ioos:station:DISL:CATA:1,2013-08-03T18:00:00Z,30.3085,-88.1395,0.0,2.4,215.0,99.0,'11111222,11111222,11144222' 
DISL,ioos:station:DISL:CATA:1,2013-08-03T18:30:00Z,30.3085,-88.1395,0.0,2.2,186.0,99.0,'11111222,11111222,11144222' 
DISL,ioos:station:DISL:CATA:1,2013-08-03T19:00:00Z,30.3085,-88.1395,0.0,3.1,212.0,99.0,'11111222,11111222,11144222' 
DISL,ioos:station:DISL:CATA:1,2013-08-03T19:30:00Z,30.3085,-88.1395,0.0,3.4,223.0,99.0,'11111222,11111222,11144222' 
DISL,ioos:station:DISL:CATA:1,2013-08-03T20:00:00Z,30.3085,-88.1395,0.0,2.5,223.0,99.0,'11111222,11111222,11144222' 
DISL,ioos:station:DISL:CATA:1,2013-08-03T20:30:00Z,30.3085,-88.1395,0.0,3.4,212.0,99.0,'11111222,11111222,11144222' 
DISL,ioos:station:DISL:CATA:1,2013-08-03T21:00:00Z,30.3085,-88.1395,0.0,4.0,204.0,99.0,'11111222,11111222,11144222' 
DISL,ioos:station:DISL:CATA:1,2013-08-03T21:30:00Z,30.3085,-88.1395,0.0,4.3,206.0,99.0,'11111222,11111222,11144222' 
DISL,ioos:station:DISL:CATA:1,2013-08-03T22:00:00Z,30.3085,-88.1395,0.0,5.2,203.0,99.0,'11111222,11111222,11144222' 
DISL,ioos:station:DISL:CATA:1,2013-08-03T22:30:00Z,30.3085,-88.1395,0.0,4.6,216.0,99.0,'11111222,11111222,11144222' 
DISL,ioos:station:DISL:CATA:1,2013-08-03T23:00:00Z,30.3085,-88.1395,0.0,4.6,217.0,99.0,'11111222,11111222,11144222' 
DISL,ioos:station:DISL:CATA:1,2013-08-03T23:30:00Z,30.3085,-88.1395,0.0,4.4,214.0,99.0,'11111222,11111222,11144222' 
DISL,ioos:station:DISL:CATA:1,2013-08-04T00:00:00Z,30.3085,-88.1395,0.0,4.9,220.0,99.0,'11111222,11111222,11144222' 
DISL,ioos:station:DISL:CATA:1,2013-08-04T00:30:00Z,30.3085,-88.1395,0.0,5.3,221.0,99.0,'11111222,11111222,11144222' 
DISL,ioos:station:DISL:CATA:1,2013-08-04T01:00:00Z,30.3085,-88.1395,0.0,5.4,229.0,99.0,'11111222,11111222,11144222' 
DISL,ioos:station:DISL:CATA:1,2013-08-04T01:30:00Z,30.3085,-88.1395,0.0,5.7,235.0,99.0,'11111222,11111222,11144222' 
DISL,ioos:station:DISL:CATA:1,2013-08-04T02:00:00Z,30.3085,-88.1395,0.0,5.3,231.0,99.0,'11111222,11111222,11144222' 
DISL,ioos:station:DISL:CATA:1,2013-08-04T02:30:00Z,30.3085,-88.1395,0.0,5.4,239.0,99.0,'11111222,11111222,11144222' 
DISL,ioos:station:DISL:CATA:1,2013-08-04T03:00:00Z,30.3085,-88.1395,0.0,4.7,239.0,99.0,'11111222,11111222,11144222' 
DISL,ioos:station:DISL:CATA:1,2013-08-04T03:30:00Z,30.3085,-88.1395,0.0,4.8,242.0,99.0,'11111222,11111222,11144222' 
DISL,ioos:station:DISL:CATA:1,2013-08-04T04:00:00Z,30.3085,-88.1395,0.0,4.4,242.0,99.0,'11111222,11111222,11144222' 
DISL,ioos:station:DISL:CATA:1,2013-08-04T04:30:00Z,30.3085,-88.1395,0.0,5.0,240.0,99.0,'11111222,11111222,11144222' 
DISL,ioos:station:DISL:CATA:1,2013-08-04T05:00:00Z,30.3085,-88.1395,0.0,5.4,239.0,99.0,'11111222,11111222,11144222' 
DISL,ioos:station:DISL:CATA:1,2013-08-04T05:30:00Z,30.3085,-88.1395,0.0,5.3,243.0,99.0,'11111222,11111222,11144222' 
DISL,ioos:station:DISL:CATA:1,2013-08-04T06:30:00Z,30.3085,-88.1395,0.0,4.8,244.0,99.0,'11111222,11111222,11144222' 
DISL,ioos:station:DISL:CATA:1,2013-08-04T07:00:00Z,30.3085,-88.1395,0.0,4.6,246.0,99.0,'11111222,11111222,11144222' 
DISL,ioos:station:DISL:CATA:1,2013-08-04T07:30:00Z,30.3085,-88.1395,0.0,5.3,252.0,99.0,'11111222,11111222,11144222' 
DISL,ioos:station:DISL:CATA:1,2013-08-04T08:00:00Z,30.3085,-88.1395,0.0,4.7,258.0,99.0,'11111222,11111222,11144222' 
DISL,ioos:station:DISL:CATA:1,2013-08-04T08:30:00Z,30.3085,-88.1395,0.0,4.7,266.0,99.0,'11111222,11111222,11144222' 
DISL,ioos:station:DISL:CATA:1,2013-08-04T09:00:00Z,30.3085,-88.1395,0.0,5.0,274.0,99.0,'11111222,11111222,11144222' 
DISL,ioos:station:DISL:CATA:1,2013-08-04T09:30:00Z,30.3085,-88.1395,0.0,4.7,326.0,99.0,'11111222,11111222,11144222' 
DISL,ioos:station:DISL:CATA:1,2013-08-04T10:00:00Z,30.3085,-88.1395,0.0,4.9,323.0,99.0,'11111222,11111222,11144222' 
DISL,ioos:station:DISL:CATA:1,2013-08-04T10:30:00Z,30.3085,-88.1395,0.0,4.4,321.0,99.0,'11111222,11111222,11144222' 
DISL,ioos:station:DISL:CATA:1,2013-08-04T11:00:00Z,30.3085,-88.1395,0.0,4.1,313.0,99.0,'11111222,11111222,11144222' 
DISL,ioos:station:DISL:CATA:1,2013-08-04T11:30:00Z,30.3085,-88.1395,0.0,3.3,317.0,99.0,'11111222,11111222,11144222' 
DISL,ioos:station:DISL:CATA:1,2013-08-04T12:00:00Z,30.3085,-88.1395,0.0,4.6,326.0,99.0,'11111222,11111222,11144222' 
DISL,ioos:station:DISL:CATA:1,2013-08-04T12:30:00Z,30.3085,-88.1395,0.0,5.1,323.0,99.0,'11111222,11111222,11144222' 
DISL,ioos:station:DISL:CATA:1,2013-08-04T13:00:00Z,30.3085,-88.1395,0.0,4.8,329.0,99.0,'11111222,11111222,11144222' 
DISL,ioos:station:DISL:CATA:1,2013-08-04T13:30:00Z,30.3085,-88.1395,0.0,4.6,326.0,99.0,'11111222,11111222,11144222' 
DISL,ioos:station:DISL:CATA:1,2013-08-04T14:00:00Z,30.3085,-88.1395,0.0,4.3,311.0,99.0,'11111222,11111222,11144222' 
DISL,ioos:station:DISL:CATA:1,2013-08-04T14:30:00Z,30.3085,-88.1395,0.0,4.9,306.0,99.0,'11111222,11111222,11144222' 
DISL,ioos:station:DISL:CATA:1,2013-08-04T15:00:00Z,30.3085,-88.1395,0.0,4.8,310.0,99.0,'11111222,11111222,11144222' 
DISL,ioos:station:DISL:CATA:1,2013-08-04T15:30:00Z,30.3085,-88.1395,0.0,4.1,298.0,99.0,'11111222,11111222,11144222' 
DISL,ioos:station:DISL:CATA:1,2013-08-04T16:00:00Z,30.3085,-88.1395,0.0,4.5,305.0,99.0,'11111222,11111222,11144222' 
DISL,ioos:station:DISL:CATA:1,2013-08-04T16:30:00Z,30.3085,-88.1395,0.0,4.4,259.0,99.0,'11111222,11111222,11144222' 
DISL,ioos:station:DISL:CATA:1,2013-08-04T17:00:00Z,30.3085,-88.1395,0.0,4.1,255.0,99.0,'11111222,11111222,11144222' 
DISL,ioos:station:DISL:CATA:1,2013-08-04T17:30:00Z,30.3085,-88.1395,0.0,4.9,243.0,99.0,'11111222,11111222,11144222' 
DISL,ioos:station:DISL:CATA:1,2013-08-04T18:00:00Z,30.3085,-88.1395,0.0,5.2,246.0,99.0,'11111222,11111222,11144222' 
DISL,ioos:station:DISL:CATA:1,2013-08-04T18:30:00Z,30.3085,-88.1395,0.0,5.4,244.0,99.0,'11111222,11111222,11144222' 
DISL,ioos:station:DISL:CATA:1,2013-08-04T19:00:00Z,30.3085,-88.1395,0.0,5.2,245.0,99.0,'11111222,11111222,11144222' 
DISL,ioos:station:DISL:CATA:1,2013-08-04T19:30:00Z,30.3085,-88.1395,0.0,5.4,246.0,99.0,'11111222,11111222,11144222' 
DISL,ioos:station:DISL:CATA:1,2013-08-04T20:00:00Z,30.3085,-88.1395,0.0,5.5,234.0,99.0,'11111222,11111222,11144222' 
DISL,ioos:station:DISL:CATA:1,2013-08-04T20:30:00Z,30.3085,-88.1395,0.0,6.7,235.0,99.0,'11111222,11111222,11144222' 
DISL,ioos:station:DISL:CATA:1,2013-08-04T21:00:00Z,30.3085,-88.1395,0.0,7.1,239.0,99.0,'11111222,11111222,11144222' 
DISL,ioos:station:DISL:CATA:1,2013-08-04T21:30:00Z,30.3085,-88.1395,0.0,7.3,245.0,99.0,'11111222,11111222,11144222' 
DISL,ioos:station:DISL:CATA:1,2013-08-04T22:00:00Z,30.3085,-88.1395,0.0,7.1,247.0,99.0,'11111222,11111222,11144222' 
DISL,ioos:station:DISL:CATA:1,2013-08-04T22:30:00Z,30.3085,-88.1395,0.0,7.3,247.0,99.0,'11111222,11111222,11144222' 
DISL,ioos:station:DISL:CATA:1,2013-08-04T23:00:00Z,30.3085,-88.1395,0.0,7.0,242.0,99.0,'11111222,11111222,11144222' 
DISL,ioos:station:DISL:CATA:1,2013-08-04T23:30:00Z,30.3085,-88.1395,0.0,7.4,248.0,99.0,'11111222,11111222,11144222' 
DISL,ioos:station:DISL:CATA:1,2013-08-05T00:00:00Z,30.3085,-88.1395,0.0,9.7,6.0,99.0,'11111222,11111222,11144222' 
DISL,ioos:station:DISL:CATA:1,2013-08-05T00:30:00Z,30.3085,-88.1395,0.0,6.6,86.0,99.0,'11111222,11111222,11144222' 
DISL,ioos:station:DISL:CATA:1,2013-08-05T01:00:00Z,30.3085,-88.1395,0.0,1.6,99.0,99.0,'11111222,11111222,11144222' 
DISL,ioos:station:DISL:CATA:1,2013-08-05T01:30:00Z,30.3085,-88.1395,0.0,1.4,144.0,99.0,'11111222,11111222,11144222' 
DISL,ioos:station:DISL:CATA:1,2013-08-05T02:00:00Z,30.3085,-88.1395,0.0,1.9,225.0,99.0,'11111222,11111222,11144222' 
DISL,ioos:station:DISL:CATA:1,2013-08-05T02:30:00Z,30.3085,-88.1395,0.0,1.4,198.0,99.0,'11111222,11111222,11144222' 
DISL,ioos:station:DISL:CATA:1,2013-08-05T03:00:00Z,30.3085,-88.1395,0.0,2.7,72.0,99.0,'11111222,11111222,11144222' 
DISL,ioos:station:DISL:CATA:1,2013-08-05T03:30:00Z,30.3085,-88.1395,0.0,3.3,58.0,99.0,'11111222,11111222,11144222' 
DISL,ioos:station:DISL:CATA:1,2013-08-05T04:00:00Z,30.3085,-88.1395,0.0,3.2,84.0,99.0,'11111222,11111222,11144222' 
DISL,ioos:station:DISL:CATA:1,2013-08-05T04:30:00Z,30.3085,-88.1395,0.0,2.2,84.0,99.0,'11111222,11111222,11144222' 
DISL,ioos:station:DISL:CATA:1,2013-08-05T05:00:00Z,30.3085,-88.1395,0.0,1.3,110.0,99.0,'11111222,11111222,11144222' 
DISL,ioos:station:DISL:CATA:1,2013-08-05T05:30:00Z,30.3085,-88.1395,0.0,1.0,92.0,99.0,'11111222,11111222,11144222' 
DISL,ioos:station:DISL:CATA:1,2013-08-05T06:30:00Z,30.3085,-88.1395,0.0,0.7,117.0,99.0,'11111222,11111222,11144222' 
DISL,ioos:station:DISL:CATA:1,2013-08-05T07:00:00Z,30.3085,-88.1395,0.0,1.4,354.0,99.0,'11111222,11111222,11144222' 
DISL,ioos:station:DISL:CATA:1,2013-08-05T07:30:00Z,30.3085,-88.1395,0.0,1.1,351.0,99.0,'11111222,11111222,11144222' 
DISL,ioos:station:DISL:CATA:1,2013-08-05T08:00:00Z,30.3085,-88.1395,0.0,1.2,349.0,99.0,'11111222,11111222,11144222' 